Date String (YYYY-MM-DD hh:mm:ss) UTC,Instrument flags,Ambient pressure (hPa),Sample flow (lpm),Bypass flow (lpm),Sample temperature (°C),Ambient temperature (°C),ASC tube jacket temperature (°C),LED temperature (°C),Box temperature (°C),Sample RH (%),Span deviation,Mass concentration (μg/m³),Mass concentration (μg/m³),Mass concentration (μg/m³)
DateTimeUTC,F1_M11,P_M11,Q1_M11,Q2_M11,T1_M11,T2_M11,T3_M11,T4_M11,T5_M11,U1_M11,ZSPAN_M11,X2_M11,X0_M11,X1_M11
2022-08-05 16:00:00,,0826.7,5.00,0.00,30.3,28.0,00.0,38.9,31.7,35.1,0001.4,0011.62,0029.53,0008.45
2022-08-05 16:01:00,,0826.7,4.99,0.00,30.4,28.2,00.0,38.9,31.8,34.8,0001.6,0011.64,0029.98,0008.47
2022-08-05 16:02:00,,0826.7,5.01,0.00,30.6,28.3,00.0,38.9,31.9,34.6,0002.0,0011.61,0029.85,0008.46
2022-08-05 16:03:00,,0826.8,5.00,0.00,30.6,28.4,00.0,38.9,31.9,34.3,0002.0,0011.65,0029.93,0008.45
2022-08-05 16:04:00,,0826.8,4.99,0.00,30.6,27.9,00.0,38.9,31.8,34.2,0001.9,0011.69,0029.48,0008.44
2022-08-05 16:05:00,,0826.7,5.00,0.00,30.6,27.5,00.0,38.9,31.7,34.0,0001.7,0011.61,0029.43,0008.46
2022-08-05 16:06:00,,0826.7,5.00,0.00,30.6,27.5,00.0,38.9,31.7,33.9,0001.7,0011.70,0030.26,0008.45
2022-08-05 16:07:00,,0826.7,5.01,0.00,30.5,27.6,00.0,38.9,31.6,34.7,0001.4,0011.63,0030.14,0008.45
2022-08-05 16:08:00,,0826.7,4.98,0.00,30.4,27.7,00.0,38.9,31.6,35.0,0001.3,0011.55,0030.04,0008.45
2022-08-05 16:09:00,,0826.8,5.00,0.00,30.5,27.9,00.0,38.9,31.7,34.6,0001.4,0011.45,0030.07,0008.43
2022-08-05 16:10:00,,0826.7,5.01,0.00,30.6,28.1,00.0,38.9,31.9,34.2,0001.1,0011.33,0028.82,0008.39
2022-08-05 16:11:00,,0826.7,4.99,0.00,30.7,28.3,00.0,38.9,31.9,34.3,0001.1,0011.14,0027.93,0008.36
2022-08-05 16:12:00,,0826.8,5.01,0.00,30.7,28.3,00.0,38.9,31.9,33.9,0001.1,0011.11,0026.39,0008.34
2022-08-05 16:13:00,,0826.8,5.01,0.00,30.7,27.9,00.0,38.9,31.8,33.8,0001.0,0011.12,0025.77,0008.35
2022-08-05 16:14:00,,0826.8,5.00,0.00,30.7,27.6,00.0,38.9,31.7,33.6,0001.0,0011.10,0024.83,0008.34
2022-08-05 16:15:00,,0826.8,4.99,0.00,30.6,27.5,00.0,38.9,31.7,33.1,0001.5,0010.93,0024.80,0008.32
2022-08-05 16:16:00,,0826.7,5.00,0.00,30.5,27.6,00.0,38.9,31.6,33.3,0001.4,0010.86,0024.46,0008.30
2022-08-05 16:17:00,,0826.8,5.00,0.00,30.4,27.8,00.0,38.9,31.6,33.4,0001.2,0010.81,0023.70,0008.29
2022-08-05 16:18:00,,0826.7,5.00,0.00,30.4,27.9,00.0,38.9,31.7,33.4,0001.4,0010.82,0023.98,0008.28
2022-08-05 16:19:00,,0826.7,5.00,0.00,30.4,28.1,00.0,38.9,31.7,32.9,0001.7,0010.85,0025.28,0008.26
2022-08-05 16:20:00,,0826.7,5.01,0.00,30.4,28.2,00.0,38.9,31.8,32.6,0001.5,0010.83,0025.68,0008.25
2022-08-05 16:21:00,,0826.7,5.00,0.00,30.4,27.7,00.0,38.9,31.6,32.7,0001.5,0010.81,0026.52,0008.24
2022-08-05 16:22:00,,0826.7,5.00,0.00,30.3,27.3,00.0,38.9,31.6,32.9,0001.4,0010.81,0026.56,0008.24
2022-08-05 16:23:00,,0826.7,5.01,0.00,30.3,27.3,00.0,38.8,31.5,33.5,0001.5,0010.75,0026.63,0008.23
2022-08-05 16:24:00,,0826.7,4.99,0.00,30.2,27.4,00.0,38.8,31.4,33.9,0001.7,0010.74,0026.73,0008.23
2022-08-05 16:25:00,,0826.8,4.99,0.00,30.1,27.6,00.0,38.8,31.4,34.3,0001.6,0010.82,0026.83,0008.24
2022-08-05 16:26:00,,0826.8,5.01,0.00,30.1,27.8,00.0,38.8,31.5,34.4,0001.4,0010.88,0025.90,0008.26
2022-08-05 16:27:00,,0826.7,4.99,0.00,30.1,28.0,00.0,38.8,31.6,34.6,0001.8,0010.87,0026.38,0008.27
2022-08-05 16:28:00,,0826.7,4.99,0.00,30.1,28.1,00.0,38.8,31.6,34.7,0002.0,0010.85,0027.54,0008.27
2022-08-05 16:29:00,,0826.7,5.01,0.00,30.1,28.0,00.0,38.8,31.6,34.9,0002.0,0010.85,0027.74,0008.28
2022-08-05 16:30:00,,0826.8,4.99,0.00,30.1,27.5,00.0,38.7,31.5,34.7,0002.0,0010.75,0026.91,0008.29
2022-08-05 16:31:00,,0826.7,5.01,0.00,30.2,27.4,00.0,38.7,31.5,35.0,0002.3,0010.77,0025.87,0008.28
2022-08-05 16:32:00,,0826.7,4.99,0.00,30.3,27.4,00.0,38.7,31.5,35.9,0002.4,0010.88,0025.37,0008.28
2022-08-05 16:33:00,,0826.7,5.01,0.00,30.5,27.5,00.0,38.7,31.6,35.6,0002.2,0010.88,0025.56,0008.27
2022-08-05 16:34:00,,0826.7,5.00,0.00,30.8,27.7,00.0,38.7,31.8,33.9,0002.1,0010.85,0025.40,0008.23
2022-08-05 16:35:00,,0826.7,4.99,0.00,31.1,27.9,00.0,38.7,31.9,33.8,0001.9,0010.81,0025.87,0008.20
2022-08-05 16:36:00,,0826.7,5.01,0.00,31.2,28.1,00.0,38.8,31.9,33.0,0002.1,0010.63,0026.06,0008.14
2022-08-05 16:37:00,,0826.7,4.99,0.00,31.3,27.9,00.0,38.8,31.9,31.9,0002.0,0010.50,0026.41,0008.09
2022-08-05 16:38:00,,0826.7,5.01,0.00,31.2,27.5,00.0,38.9,31.7,32.4,0001.7,0010.44,0025.39,0008.06
2022-08-05 16:39:00,,0826.7,4.99,0.00,31.2,27.3,00.0,39.0,31.7,33.4,0001.7,0010.37,0024.50,0008.04
2022-08-05 16:40:00,,0826.7,5.00,0.00,31.1,27.4,00.0,39.0,31.6,33.6,0001.7,0010.39,0025.41,0008.00
2022-08-05 16:41:00,,0826.7,5.02,0.00,31.0,27.5,00.0,39.0,31.5,33.4,0001.8,0010.43,0026.60,0007.97
2022-08-05 16:42:00,,0826.7,4.98,0.00,30.9,27.7,00.0,39.0,31.6,33.9,0001.4,0010.38,0026.97,0007.98
2022-08-05 16:43:00,,0826.7,5.02,0.00,30.9,27.9,00.0,39.1,31.6,33.7,0001.6,0010.33,0027.19,0007.97
2022-08-05 16:44:00,,0826.7,4.99,0.00,30.9,28.1,00.0,39.1,31.7,33.3,0002.1,0010.38,0026.75,0007.99
2022-08-05 16:45:00,,0826.7,5.00,0.00,30.9,28.2,00.0,39.1,31.7,33.2,0002.1,0010.38,0026.45,0007.99
2022-08-05 16:46:00,,0826.7,5.01,0.00,30.9,27.8,00.0,39.1,31.7,33.5,0001.7,0010.31,0025.55,0007.98
2022-08-05 16:47:00,,0826.7,5.00,0.00,30.8,27.4,00.0,39.1,31.6,33.1,0001.6,0010.29,0025.05,0008.00
2022-08-05 16:48:00,,0826.7,4.99,0.00,30.8,27.4,00.0,39.1,31.6,33.1,0001.7,0010.35,0025.09,0008.01
2022-08-05 16:49:00,,0826.7,5.00,0.00,30.6,27.5,00.0,39.1,31.5,32.9,0001.6,0010.37,0025.96,0008.00
2022-08-05 16:50:00,,0826.7,4.99,0.00,30.6,27.7,00.0,39.1,31.5,33.6,0001.4,0010.29,0025.83,0007.99
2022-08-05 16:51:00,,0826.7,5.01,0.00,30.5,27.9,00.0,39.0,31.6,34.0,0001.4,0010.14,0024.73,0007.97
2022-08-05 16:52:00,,0826.7,4.99,0.00,30.5,28.0,00.0,39.0,31.7,33.9,0001.2,0010.12,0023.63,0007.96
2022-08-05 16:53:00,,0826.7,5.00,0.00,30.5,28.1,00.0,39.0,31.8,33.6,0001.8,0010.10,0022.87,0007.93
2022-08-05 16:54:00,,0826.7,5.00,0.00,30.5,27.7,00.0,39.0,31.7,34.3,0001.5,0010.18,0023.06,0007.92
2022-08-05 16:55:00,,0826.7,5.01,0.00,30.4,27.4,00.0,39.0,31.6,34.6,0001.0,0010.31,0027.24,0007.91
2022-08-05 16:56:00,,0826.7,5.00,0.00,30.4,27.3,00.0,38.9,31.6,35.0,0000.7,0010.45,0030.25,0007.93
2022-08-05 16:57:00,,0826.7,4.99,0.00,30.4,27.4,00.0,38.9,31.6,34.2,0000.6,0010.55,0031.91,0007.93
2022-08-05 16:58:00,,0826.7,5.01,0.00,30.5,27.6,00.0,38.9,31.6,34.2,0000.6,0010.64,0034.39,0007.93
2022-08-05 16:59:00,,0826.7,5.01,0.00,30.5,27.8,00.0,38.9,31.7,34.4,0000.1,0010.61,0034.34,0007.94
